EW5401 Weather Reports


Display with metric or nautical units.
time (UTC)temp
F
wind
direction
speed
MPH
gust
MPH
rain 1hr
in
rain 24hr
in
rain mn
in
humidity
%
barometer
mb
20260902194513 68 31 0.0 2.0 0.00 0.04 0.02 83 1018.8
20260902193008 68 239 0.0 3.0 0.00 0.04 0.02 83 1018.9
20260902191507 67 217 2.0 4.0 0.00 0.04 0.02 84 1018.9
20260902190006 67 247 0.0 3.0 0.00 0.04 0.02 82 1019.2
20260902184505 67 113 0.0 3.0 0.00 0.18 0.02 84 1019.7
20260902183005 68 130 0.0 3.0 0.00 0.18 0.02 83 1019.8
20260902181505 68 219 0.0 3.0 0.00 0.18 0.02 80 1019.7
20260902180007 69 142 0.0 3.0 0.00 0.18 0.02 79 1019.2
20260902174504 69 146 0.0 2.0 0.00 0.82 0.02 77 1019.2
20260902173005 69 154 1.0 5.0 0.00 0.82 0.02 77 1019.2
20260902171502 69 207 1.0 3.0 0.00 0.82 0.02 79 1019.8
20260902170059 68 212 0.0 2.0 0.00 0.82 0.02 79 1020.0
20260902164600 68 212 0.0 4.0 0.00 0.83 0.02 78 1020.0
20260902163102 68 102 1.0 4.0 0.00 0.83 0.02 77 1020.0
20260902161558 68 311 1.0 3.0 0.00 0.83 0.02 78 1019.9
20260902160059 68 225 0.0 3.0 0.00 0.83 0.02 80 1019.9
20260902154553 68 5 0.0 4.0 0.00 0.83 0.02 79 1019.8
20260902153052 67 86 1.0 6.0 0.00 0.83 0.02 79 1019.6
20260902151550 67 187 0.0 2.0 0.00 0.83 0.02 81 1020.1
20260902150048 67 202 0.0 4.0 0.00 0.83 0.02 80 1020.4
20260902144546 66 275 0.0 3.0 0.00 0.84 0.02 83 1020.6
20260902143044 66 234 0.0 3.0 0.00 0.84 0.02 83 1020.5
20260902141541 65 294 1.0 3.0 0.00 0.84 0.02 84 1020.3
20260902140043 65 340 0.0 3.0 0.00 0.84 0.02 85 1020.4
20260902134538 64 203 2.0 5.0 0.00 0.84 0.02 84 1020.3
20260902133035 64 19 1.0 4.0 0.00 0.84 0.02 86 1020.3
20260902131534 63 18 1.0 4.0 0.00 0.84 0.02 87 1020.1
20260902130030 63 287 0.0 2.0 0.00 0.84 0.02 89 1020.0
20260902124529 62 213 1.0 4.0 0.00 0.95 0.02 89 1020.1
20260902123032 62 82 1.0 5.0 0.00 0.95 0.02 90 1020.0
20260902121527 61 360 1.0 3.0 0.00 0.95 0.02 92 1019.8
20260902120025 61 215 1.0 3.0 0.00 0.95 0.02 93 1019.8
20260902114627 60 307 0.0 3.0 0.00 0.97 0.02 95 1019.8
20260902113026 60 160 0.0 0.0 0.00 0.97 0.02 95 1019.9
20260902111535 60 160 0.0 0.0 0.00 0.97 0.02 95 1020.3
20260902110022 60 160 0.0 2.0 0.00 0.97 0.02 94 1020.2
20260902104535 60 160 0.0 2.0 0.00 1.17 0.02 94 1020.1
20260902103019 60 160 0.0 0.0 0.00 1.17 0.02 94 1019.8
20260902101516 60 160 0.0 0.0 0.00 1.17 0.02 94 1019.7
20260902100014 60 160 0.0 2.0 0.00 1.17 0.02 94 1019.4
20260902094519 61 160 0.0 2.0 0.00 1.28 0.02 94 1019.3
20260902093010 61 160 0.0 2.0 0.00 1.28 0.02 94 1019.1
20260902091509 61 160 0.0 0.0 0.00 1.28 0.02 95 1018.8
20260902090008 61 160 0.0 1.0 0.00 1.28 0.02 94 1018.7
20260902084509 61 160 0.0 1.0 0.00 1.28 0.02 94 1018.7
20260902083010 61 160 0.0 2.0 0.00 1.28 0.02 94 1018.7
20260902081514 61 112 1.0 6.0 0.00 1.28 0.02 94 1018.6
20260902080008 62 225 0.0 2.0 0.00 1.28 0.02 95 1018.7
20260902074503 62 225 0.0 3.0 0.00 1.28 0.02 95 1018.5
20260902073003 62 217 0.0 1.0 0.01 1.28 0.02 95 1018.7
20260902071508 62 217 0.0 1.0 0.02 1.28 0.02 95 1018.7
20260902070004 62 217 0.0 0.0 0.02 1.28 0.02 95 1018.8
20260902064501 62 217 0.0 0.0 0.02 1.28 0.02 94 1018.9
20260902063100 62 217 0.0 0.0 0.01 1.27 0.01 94 1019.0
20260902061623 62 217 0.0 0.0 0.00 1.26 0.00 94 1018.9
20260902054602 62 217 0.0 1.0 0.00 1.26 0.00 94 1018.7
20260902053056 62 217 0.0 1.0 0.00 1.26 0.00 94 1018.5
20260902051556 62 217 0.0 0.0 0.00 1.26 0.00 94 1018.2
20260902044551 62 217 0.0 2.0 0.00 1.26 0.00 93 1018.3
20260902043051 62 217 0.0 2.0 0.00 1.26 0.00 93 1018.2
20260902041600 62 217 0.0 0.0 0.00 1.26 0.00 93 1018.2
20260902040048 62 217 0.0 1.0 0.00 1.26 0.00 93 1017.8
20260902034552 62 217 0.0 1.0 0.00 1.26 1.26 93 1017.7
20260902033055 62 217 1.0 5.0 0.00 1.26 1.26 92 1017.5
20260902031543 62 274 1.0 3.0 0.00 1.26 1.26 92 1017.7
20260902030044 62 270 2.0 4.0 0.00 1.26 1.26 93 1017.5
20260902024544 62 10 1.0 4.0 0.00 1.26 1.26 92 1017.3
20260902023040 62 279 0.0 3.0 0.00 1.26 1.26 93 1017.4
20260902021553 62 294 0.0 3.0 0.00 1.26 1.26 93 1017.4
20260902020038 62 293 1.0 3.0 0.00 1.26 1.26 93 1017.5
20260902014540 62 27 2.0 3.0 0.00 1.26 1.26 93 1017.4
20260902013035 62 232 1.0 3.0 0.00 1.26 1.26 92 1017.2
20260902011538 62 247 1.0 5.0 0.00 1.26 1.26 92 1017.1
20260902010051 63 5 1.0 5.0 0.00 1.26 1.26 92 1016.9
20260902004538 63 269 1.0 6.0 0.00 1.28 1.26 92 1016.6
20260902003028 63 298 1.0 4.0 0.00 1.28 1.26 92 1016.3
20260902001526 63 326 1.0 5.0 0.00 1.28 1.26 92 1016.1
20260902000041 64 317 1.0 4.0 0.00 1.28 1.26 92 1016.0
20260901234546 64 245 0.0 4.0 0.00 1.28 1.26 92 1016.1
20260901233021 64 13 3.0 8.0 0.00 1.28 1.26 92 1015.8
20260901231526 65 308 1.0 4.0 0.00 1.28 1.26 92 1015.7
20260901230019 65 34 2.0 10.0 0.00 1.28 1.26 92 1015.8
20260901224521 66 261 2.0 6.0 0.00 1.28 1.26 92 1015.6
20260901223024 66 307 2.0 5.0 0.00 1.28 1.26 93 1015.6
20260901221522 67 311 3.0 8.0 0.00 1.28 1.26 93 1015.3
20260901220017 67 276 0.0 6.0 0.00 1.28 1.26 93 1015.2
20260901214513 67 317 2.0 5.0 0.00 1.28 1.26 93 1015.1
20260901213013 68 360 1.0 5.0 0.00 1.28 1.26 93 1014.9
20260901211514 68 360 1.0 4.0 0.00 1.28 1.26 94 1014.8
20260901210011 69 22 1.0 4.0 0.01 1.28 1.26 94 1014.7
20260901204514 69 211 1.0 6.0 0.01 1.28 1.26 94 1014.6
20260901203019 69 16 1.0 3.0 0.01 1.28 1.26 95 1014.5
20260901201510 69 31 1.0 3.0 0.02 1.28 1.26 95 1014.3
20260901200022 69 30 0.0 3.0 0.01 1.27 1.25 95 1014.3